Location: *
(50.3440°N, 18.6237°E)
Time: 13:27:50
(UTC+00:00)

Okean O Rocket - Pass Details

Date: 30 November 2020
Orbit: 622 x 645 km, 98.2° (Epoch: 26 January)

Event Time Altitude Azimuth Distance (km) Brightness Sun altitude
Rises 15:58:16 0° 161° (SSE) 2,900 5.0 -11.1°
Reaches altitude 10° 16:00:26 10° 160° (SSE) 2,000 4.2 -11.4°
Maximum altitude 16:04:47 81° 73° (ENE) 646 1.5 -12.1°
Drops below altitude 10° 16:09:12 10° 347° (NNW) 2,030 4.1 -12.8°
Sets 16:11:26 0° 347° (NNW) 2,947 5.0 -13.1°
